Location: Castle Hill Houses
(40.8186°N, 73.8497°W)
Time: 09:13:20
(UTC+00:00)

Cosmos 1908 - Pass Details

Date: 26 January 2020
Orbit: 511 x 532 km, 82.5° (Epoch: 16 February)

Event Time Altitude Azimuth Distance (km) Brightness Sun altitude
Rises 09:57:14 0° 176° (S) 2,660 6.9 -25.3°
Reaches altitude 10° 09:59:23 10° 172° (S) 1,774 6.0 -24.9°
Maximum altitude 10:03:12 56° 94° (E) 638 3.9 -24.2°
Drops below altitude 10° 10:07:02 10° 17° (NNE) 1,783 6.0 -23.5°
Sets 10:09:13 0° 13° (NNE) 2,675 6.9 -23.1°
